| time (UTC) | temp C | wind direction | speed KPH | gust KPH | rain 1hr cm | rain 24hr cm | rain mn cm | humidity % | barometer mb |
| 20260906065004 | 22 | 352 | 1.6 | 3.2 | 0.00 | 0.20 | 0.00 | 92 | 1010.0 |
| 20260906064004 | 22 | 352 | 1.6 | 3.2 | 0.00 | 0.20 | 0.00 | 92 | 1010.0 |
| 20260906063004 | 22 | 352 | 1.6 | 4.8 | 0.00 | 0.20 | 0.00 | 91 | 1010.1 |
| 20260906062025 | 22 | 352 | 1.6 | 4.8 | 0.00 | 0.20 | 0.00 | 91 | 1010.3 |
| 20260906061005 | 22 | 352 | 1.6 | 3.2 | 0.00 | 0.20 | 0.00 | 91 | 1010.5 |
| 20260906060004 | 22 | 352 | 3.2 | 4.8 | 0.00 | 0.20 | 0.00 | 90 | 1010.5 |
| 20260906055004 | 23 | 353 | 0.0 | 3.2 | 0.00 | 0.20 | 0.00 | 90 | 1010.6 |
| 20260906054046 | 23 | 352 | 1.6 | 3.2 | 0.00 | 0.20 | 0.00 | 89 | 1010.6 |
| 20260906053004 | 23 | 353 | 0.0 | 3.2 | 0.00 | 0.20 | 0.00 | 89 | 1010.6 |
| 20260906052025 | 23 | 350 | 1.6 | 3.2 | 0.00 | 0.20 | 0.00 | 89 | 1010.7 |
| 20260906051004 | 23 | 351 | 0.0 | 3.2 | 0.00 | 0.20 | 0.00 | 88 | 1010.9 |
| 20260906050026 | 23 | 359 | 0.0 | 3.2 | 0.00 | 0.20 | 0.00 | 88 | 1010.8 |
| 20260906045004 | 23 | 359 | 0.0 | 1.6 | 0.00 | 0.20 | 0.00 | 88 | 1010.7 |
| 20260906044004 | 23 | 352 | 0.0 | 1.6 | 0.00 | 0.20 | 0.00 | 88 | 1010.7 |
| 20260906043004 | 23 | 359 | 0.0 | 1.6 | 0.00 | 0.20 | 0.00 | 87 | 1010.7 |
| 20260906042004 | 23 | 360 | 0.0 | 3.2 | 0.00 | 0.20 | 0.00 | 86 | 1010.7 |
| 20260906041004 | 23 | 357 | 0.0 | 3.2 | 0.00 | 0.20 | 0.00 | 86 | 1010.3 |
| 20260906040004 | 23 | 357 | 1.6 | 3.2 | 0.00 | 0.20 | 0.20 | 85 | 1010.3 |
| 20260906035005 | 24 | 358 | 0.0 | 3.2 | 0.00 | 0.20 | 0.20 | 85 | 1010.3 |
| 20260906034004 | 24 | 353 | 1.6 | 3.2 | 0.00 | 0.20 | 0.20 | 85 | 1010.2 |
| 20260906033004 | 24 | 355 | 1.6 | 4.8 | 0.00 | 0.20 | 0.20 | 84 | 1010.1 |
| 20260906032004 | 24 | 356 | 1.6 | 4.8 | 0.00 | 0.20 | 0.20 | 84 | 1010.4 |
| 20260906031025 | 24 | 353 | 0.0 | 4.8 | 0.00 | 0.20 | 0.20 | 83 | 1010.2 |
| 20260906030004 | 24 | 357 | 0.0 | 1.6 | 0.00 | 0.20 | 0.20 | 83 | 1010.3 |
| 20260906025004 | 25 | 356 | 0.0 | 0.0 | 0.00 | 0.20 | 0.20 | 83 | 1010.2 |
| 20260906024004 | 25 | 343 | 0.0 | 0.0 | 0.00 | 0.20 | 0.20 | 84 | 1009.9 |
| 20260906023026 | 25 | 357 | 0.0 | 0.0 | 0.00 | 0.20 | 0.20 | 82 | 1009.9 |
| 20260906022004 | 25 | 356 | 0.0 | 3.2 | 0.00 | 0.20 | 0.20 | 80 | 1010.0 |
| 20260906021004 | 25 | 355 | 1.6 | 3.2 | 0.00 | 0.20 | 0.20 | 80 | 1010.1 |
| 20260906020004 | 25 | 359 | 0.0 | 4.8 | 0.00 | 0.20 | 0.20 | 80 | 1010.1 |
| 20260906015004 | 25 | 357 | 0.0 | 3.2 | 0.00 | 0.20 | 0.20 | 80 | 1010.1 |
| 20260906014004 | 25 | 0 | 0.0 | 3.2 | 0.00 | 0.20 | 0.20 | 80 | 1010.0 |
| 20260906013004 | 25 | 349 | 0.0 | 4.8 | 0.00 | 0.20 | 0.20 | 80 | 1009.9 |
| 20260906012004 | 25 | 352 | 1.6 | 4.8 | 0.00 | 0.20 | 0.20 | 79 | 1009.5 |
| 20260906011004 | 26 | 353 | 1.6 | 3.2 | 0.00 | 0.20 | 0.20 | 80 | 1009.7 |
| 20260906010004 | 26 | 354 | 0.0 | 4.8 | 0.00 | 0.20 | 0.20 | 79 | 1009.6 |
| 20260906005005 | 26 | 353 | 1.6 | 4.8 | 0.00 | 0.20 | 0.20 | 78 | 1009.7 |
| 20260906004004 | 26 | 353 | 1.6 | 8.0 | 0.00 | 0.20 | 0.20 | 78 | 1009.7 |
| 20260906003005 | 26 | 351 | 1.6 | 4.8 | 0.00 | 0.20 | 0.20 | 77 | 1009.6 |
| 20260906002004 | 26 | 351 | 1.6 | 4.8 | 0.00 | 0.20 | 0.20 | 76 | 1009.4 |
| 20260906001004 | 27 | 352 | 1.6 | 4.8 | 0.00 | 0.20 | 0.20 | 76 | 1009.5 |
| 20260906000005 | 27 | 352 | 1.6 | 3.2 | 0.00 | 0.20 | 0.20 | 74 | 1009.6 |
| 20260905235004 | 28 | 352 | 1.6 | 6.4 | 0.00 | 0.20 | 0.20 | 72 | 1009.8 |
| 20260905234025 | 28 | 352 | 4.8 | 6.4 | 0.00 | 0.20 | 0.20 | 71 | 1009.8 |
| 20260905233004 | 29 | 354 | 1.6 | 6.4 | 0.00 | 0.20 | 0.20 | 69 | 1009.5 |
| 20260905232004 | 30 | 356 | 3.2 | 9.7 | 0.00 | 0.20 | 0.20 | 65 | 1009.8 |
| 20260905231027 | 31 | 17 | 6.4 | 9.7 | 0.00 | 0.20 | 0.20 | 62 | 1009.9 |
| 20260905230004 | 32 | 315 | 1.6 | 8.0 | 0.00 | 0.20 | 0.20 | 60 | 1009.7 |
| 20260905225026 | 33 | 219 | 1.6 | 4.8 | 0.00 | 0.20 | 0.20 | 56 | 1009.7 |
| 20260905224004 | 34 | 185 | 0.0 | 3.2 | 0.00 | 0.20 | 0.20 | 58 | 1009.7 |
| 20260905223004 | 33 | 314 | 0.0 | 1.6 | 0.00 | 0.20 | 0.20 | 56 | 1009.3 |
| 20260905222004 | 33 | 314 | 0.0 | 4.8 | 0.00 | 0.20 | 0.20 | 55 | 1009.4 |
| 20260905221005 | 33 | 297 | 0.0 | 3.2 | 0.00 | 0.20 | 0.20 | 57 | 1009.5 |
| 20260905220027 | 33 | 308 | 1.6 | 6.4 | 0.00 | 0.20 | 0.20 | 54 | 1009.5 |
| 20260905215005 | 34 | 314 | 0.0 | 6.4 | 0.00 | 0.20 | 0.20 | 55 | 1009.4 |
| 20260905214004 | 33 | 314 | 4.8 | 8.0 | 0.00 | 0.20 | 0.20 | 53 | 1009.3 |
| 20260905213026 | 34 | 309 | 3.2 | 8.0 | 0.00 | 0.20 | 0.20 | 55 | 1009.5 |
| 20260905212005 | 34 | 161 | 0.0 | 4.8 | 0.00 | 0.20 | 0.20 | 53 | 1009.6 |
| 20260905211005 | 34 | 312 | 0.0 | 8.0 | 0.00 | 0.20 | 0.20 | 52 | 1009.5 |
| 20260905210005 | 35 | 313 | 0.0 | 6.4 | 0.00 | 0.20 | 0.20 | 51 | 1009.5 |
| 20260905205004 | 34 | 7 | 0.0 | 8.0 | 0.00 | 0.20 | 0.20 | 53 | 1009.4 |
| 20260905204004 | 34 | 21 | 1.6 | 3.2 | 0.00 | 0.20 | 0.20 | 52 | 1009.5 |
| 20260905203005 | 33 | 123 | 1.6 | 6.4 | 0.00 | 0.20 | 0.20 | 51 | 1009.6 |
| 20260905202005 | 33 | 158 | 0.0 | 8.0 | 0.00 | 0.20 | 0.20 | 56 | 1009.8 |
| 20260905201004 | 34 | 312 | 0.0 | 6.4 | 0.00 | 0.20 | 0.20 | 51 | 1009.9 |
| 20260905200027 | 33 | 202 | 0.0 | 3.2 | 0.00 | 0.20 | 0.20 | 57 | 1010.0 |
| 20260905195004 | 32 | 181 | 1.6 | 9.7 | 0.00 | 0.20 | 0.20 | 53 | 1010.2 |
| 20260905194046 | 32 | 163 | 3.2 | 8.0 | 0.00 | 0.20 | 0.20 | 57 | 1010.3 |
| 20260905193004 | 32 | 159 | 4.8 | 11.3 | 0.00 | 0.20 | 0.20 | 60 | 1010.4 |
| 20260905192004 | 31 | 128 | 4.8 | 14.5 | 0.00 | 0.20 | 0.20 | 57 | 1010.5 |
| 20260905190004 | 32 | 201 | 1.6 | 8.0 | 0.00 | 0.20 | 0.20 | 58 | 1010.7 |
| 20260905185005 | 31 | 194 | 3.2 | 11.3 | 0.00 | 0.20 | 0.20 | 60 | 1011.0 |
| 20260905184004 | 31 | 189 | 4.8 | 12.9 | 0.00 | 0.20 | 0.20 | 59 | 1011.1 |
| 20260905183025 | 31 | 202 | 1.6 | 11.3 | 0.00 | 0.20 | 0.20 | 64 | 1011.2 |
| 20260905182005 | 31 | 154 | 6.4 | 14.5 | 0.00 | 0.20 | 0.20 | 63 | 1011.4 |
| 20260905181005 | 31 | 167 | 4.8 | 12.9 | 0.00 | 0.91 | 0.20 | 68 | 1011.5 |
| 20260905180004 | 31 | 139 | 3.2 | 9.7 | 0.00 | 1.63 | 0.20 | 66 | 1011.5 |
| 20260905175004 | 30 | 203 | 3.2 | 9.7 | 0.00 | 2.77 | 0.20 | 69 | 1011.5 |
| 20260905174026 | 30 | 141 | 3.2 | 8.0 | 0.00 | 3.15 | 0.20 | 69 | 1011.8 |
| 20260905173006 | 30 | 148 | 1.6 | 8.0 | 0.00 | 3.15 | 0.20 | 68 | 1011.9 |
| 20260905172005 | 30 | 152 | 4.8 | 8.0 | 0.00 | 3.15 | 0.20 | 68 | 1012.0 |
| 20260905171004 | 29 | 141 | 4.8 | 8.0 | 0.00 | 3.15 | 0.20 | 70 | 1012.0 |
| 20260905170004 | 29 | 147 | 4.8 | 11.3 | 0.00 | 3.15 | 0.20 | 69 | 1012.0 |
| 20260905165004 | 28 | 125 | 1.6 | 11.3 | 0.00 | 3.15 | 0.20 | 72 | 1011.9 |
| 20260905164005 | 28 | 135 | 4.8 | 11.3 | 0.00 | 3.15 | 0.20 | 73 | 1011.9 |
| 20260905163005 | 27 | 123 | 3.2 | 8.0 | 0.00 | 3.15 | 0.20 | 75 | 1011.9 |
| 20260905162004 | 27 | 155 | 1.6 | 11.3 | 0.00 | 3.15 | 0.20 | 77 | 1012.0 |
| 20260905161005 | 26 | 157 | 3.2 | 11.3 | 0.00 | 3.15 | 0.20 | 83 | 1011.9 |
| 20260905160005 | 26 | 162 | 3.2 | 9.7 | 0.00 | 3.15 | 0.20 | 82 | 1012.1 |
| 20260905155005 | 26 | 141 | 0.0 | 6.4 | 0.00 | 3.15 | 0.20 | 83 | 1012.3 |
| 20260905154004 | 25 | 139 | 4.8 | 8.0 | 0.00 | 3.15 | 0.20 | 85 | 1012.4 |
| 20260905153004 | 25 | 140 | 1.6 | 9.7 | 0.00 | 3.15 | 0.20 | 88 | 1012.6 |
| 20260905152005 | 24 | 134 | 4.8 | 9.7 | 0.00 | 3.15 | 0.20 | 89 | 1012.8 |
| 20260905151004 | 24 | 145 | 1.6 | 8.0 | 0.00 | 3.15 | 0.20 | 89 | 1012.9 |
| 20260905150004 | 23 | 133 | 0.0 | 4.8 | 0.00 | 3.15 | 0.20 | 89 | 1012.8 |
| 20260905145026 | 23 | 108 | 1.6 | 6.4 | 0.00 | 3.15 | 0.20 | 91 | 1013.0 |
| 20260905144004 | 22 | 9 | 1.6 | 3.2 | 0.00 | 3.15 | 0.20 | 96 | 1013.1 |
| 20260905143004 | 22 | 10 | 1.6 | 4.8 | 0.00 | 3.15 | 0.20 | 96 | 1013.3 |
| 20260905142004 | 21 | 354 | 0.0 | 3.2 | 0.00 | 3.15 | 0.20 | 97 | 1013.2 |
| 20260905141005 | 21 | 353 | 1.6 | 3.2 | 0.00 | 3.15 | 0.20 | 97 | 1013.3 |
| 20260905140004 | 21 | 352 | 0.0 | 1.6 | 0.05 | 3.15 | 0.20 | 97 | 1013.4 |
| 20260905135004 | 21 | 352 | 1.6 | 8.0 | 0.05 | 3.15 | 0.20 | 97 | 1013.5 |
| 20260905133005 | 20 | 353 | 6.4 | 11.3 | 0.05 | 3.15 | 0.20 | 96 | 1013.5 |
| 20260905132004 | 20 | 352 | 3.2 | 9.7 | 0.03 | 3.12 | 0.18 | 96 | 1013.9 |
| 20260905131004 | 20 | 352 | 6.4 | 14.5 | 0.03 | 3.12 | 0.18 | 95 | 1013.8 |
| 20260905130005 | 21 | 353 | 9.7 | 19.3 | 0.15 | 3.10 | 0.15 | 95 | 1013.9 |
| 20260905125006 | 21 | 351 | 8.0 | 16.1 | 0.13 | 3.07 | 0.13 | 94 | 1014.2 |
| 20260905124006 | 22 | 354 | 9.7 | 29.0 | 0.08 | 3.02 | 0.08 | 92 | 1014.2 |
| 20260905123004 | 23 | 354 | 11.3 | 27.4 | 0.03 | 2.97 | 0.03 | 92 | 1014.3 |
| 20260905122004 | 23 | 358 | 12.9 | 20.9 | 0.00 | 2.95 | 0.00 | 91 | 1014.1 |
| 20260905121005 | 23 | 11 | 6.4 | 11.3 | 0.00 | 2.95 | 0.00 | 92 | 1012.7 |
| 20260905120005 | 23 | 8 | 9.7 | 14.5 | 0.00 | 2.95 | 0.00 | 93 | 1012.4 |
| 20260905115004 | 23 | 7 | 8.0 | 12.9 | 0.00 | 2.95 | 0.00 | 95 | 1012.4 |
| 20260905114005 | 23 | 3 | 4.8 | 11.3 | 0.00 | 2.95 | 0.00 | 97 | 1012.4 |
| 20260905113005 | 23 | 5 | 6.4 | 17.7 | 0.00 | 2.95 | 0.00 | 98 | 1012.5 |
| 20260905112004 | 22 | 2 | 4.8 | 6.4 | 0.00 | 2.95 | 0.00 | 98 | 1012.3 |
| 20260905111004 | 23 | 358 | 0.0 | 1.6 | 0.00 | 2.95 | 0.00 | 98 | 1011.4 |
| 20260905110004 | 23 | 358 | 0.0 | 3.2 | 0.00 | 2.95 | 0.00 | 98 | 1011.1 |
| 20260905105004 | 23 | 357 | 1.6 | 4.8 | 0.00 | 2.95 | 0.00 | 98 | 1011.0 |
| 20260905104004 | 23 | 358 | 3.2 | 6.4 | 0.00 | 2.95 | 0.00 | 98 | 1011.0 |
| 20260905103026 | 23 | 358 | 3.2 | 4.8 | 0.00 | 2.95 | 0.00 | 98 | 1011.0 |
| 20260905102005 | 23 | 357 | 0.0 | 3.2 | 0.00 | 2.95 | 0.00 | 98 | 1011.0 |
| 20260905101004 | 23 | 357 | 0.0 | 1.6 | 0.00 | 2.95 | 0.00 | 97 | 1011.2 |
| 20260905100028 | 23 | 358 | 1.6 | 3.2 | 0.00 | 2.95 | 0.00 | 97 | 1011.3 |
| 20260905095005 | 23 | 358 | 0.0 | 0.0 | 0.00 | 2.95 | 0.00 | 97 | 1011.2 |
| 20260905094005 | 23 | 358 | 0.0 | 1.6 | 0.00 | 2.95 | 0.00 | 97 | 1011.0 |
| 20260905093004 | 23 | 359 | 0.0 | 1.6 | 0.00 | 2.95 | 0.00 | 97 | 1011.2 |
| 20260905092004 | 23 | 358 | 0.0 | 1.6 | 0.00 | 2.95 | 0.00 | 97 | 1011.2 |
| 20260905091005 | 23 | 359 | 0.0 | 0.0 | 0.00 | 2.95 | 0.00 | 97 | 1011.1 |
| 20260905090005 | 23 | 358 | 0.0 | 0.0 | 0.00 | 2.95 | 0.00 | 97 | 1011.1 |
| 20260905085004 | 23 | 358 | 0.0 | 0.0 | 0.00 | 2.95 | 0.00 | 97 | 1010.9 |
| 20260905084006 | 23 | 358 | 0.0 | 0.0 | 0.00 | 2.95 | 0.00 | 97 | 1010.8 |
| 20260905083004 | 23 | 358 | 0.0 | 1.6 | 0.00 | 2.95 | 0.00 | 97 | 1010.7 |
| 20260905082005 | 23 | 357 | 0.0 | 4.8 | 0.00 | 2.95 | 0.00 | 97 | 1010.6 |
| 20260905081004 | 23 | 357 | 0.0 | 1.6 | 0.00 | 2.95 | 0.00 | 96 | 1010.8 |
| 20260905080005 | 23 | 358 | 0.0 | 0.0 | 0.00 | 2.95 | 0.00 | 96 | 1010.9 |
| 20260905075005 | 23 | 358 | 0.0 | 3.2 | 0.00 | 2.95 | 0.00 | 95 | 1010.9 |
| 20260905074004 | 24 | 358 | 0.0 | 3.2 | 0.00 | 2.95 | 0.00 | 95 | 1011.0 |
| 20260905073005 | 24 | 357 | 0.0 | 3.2 | 0.00 | 2.95 | 0.00 | 95 | 1011.0 |
| 20260905072005 | 24 | 358 | 0.0 | 3.2 | 0.00 | 2.95 | 0.00 | 94 | 1011.3 |
| 20260905071004 | 24 | 358 | 0.0 | 1.6 | 0.00 | 2.95 | 0.00 | 94 | 1011.4 |
| 20260905070005 | 24 | 359 | 0.0 | 0.0 | 0.00 | 2.95 | 0.00 | 93 | 1011.5 |